STARLINK-1906 (46765 NORAD) Tracking and Keplerian Element Data

This shows tracking and keplerian element data for the satellite.

Feedback or suggestion? Click here.




ElementValue
Catalog46765
NameSTARLINK-1906
Epoch Orbit1336
Epoch Day18.25002315
Epoch Year2021
RAAN120.3016
Inclination53.0538
Eccentricity0.0001598
Argument of Perigee96.3933
Mean Anonmoly46.7594
Mean Motion15.06414694
Decay Rate-0.00026369
L11 46765U 20074AC 21018.25002315 -.00026369 00000-0 -17572-2 0 9993
L22 46765 53.0538 120.3016 0001598 96.3933 46.7594 15.06414694 13361

Live tracking and technical data element details for STARLINK-1906 (NORAD 46765). STARLINK-1906 can be tracked NOW for your location showing map with azimuth and elevation plus other details from your city location.

Track the satellite on the map from your city or location and see movement details for azimuth, elevation, latitude, longitude, range, height, and movement on the map or in text.







IsCatalogInMostPopularTable: catalog: 46765, numindb: 27
Update: records affected: 1



GetName: 46765 STARLINK-1906

Hit Count: updated at: Mon, 18 Jan 2021 16:25:05 GMT